CW2840 Weather Reports


time (UTC)temp
C
wind
direction
speed
KPH
gust
KPH
rain 1hr
cm
rain 24hr
cm
rain mn
cm
humidity
%
barometer
mb
20260506011617 26 114 6.4 11.3 0.00 0.00 0.00 73 1007.0
20260506010118 27 221 6.4 22.5 0.00 0.00 0.00 72 1006.8
20260506004616 27 166 9.7 20.9 0.00 0.00 0.00 72 1006.8
20260506003118 27 188 11.3 29.0 0.00 0.00 0.00 72 1006.7
20260506001616 27 183 4.8 20.9 0.00 0.00 0.00 72 1006.8
20260506000117 27 204 9.7 25.7 0.00 0.00 0.00 72 1006.6
20260505234615 27 164 9.7 22.5 0.00 0.00 0.00 72 1006.7
20260505233116 28 162 6.4 22.5 0.00 0.00 0.00 70 1006.5
20260505231615 28 196 8.0 20.9 0.00 0.00 0.00 69 1006.6
20260505230117 28 135 6.4 22.5 0.00 0.00 0.00 68 1006.6
20260505225323 28 247 8.0 29.0 0.00 0.00 0.00 68 1006.5
20260505223115 28 188 9.7 32.2 0.00 0.00 0.00 67 1006.5
20260505221613 29 200 3.2 22.5 0.00 0.00 0.00 68 1006.4
20260505220106 29 147 8.0 22.5 0.00 0.00 0.00 67 1006.6
20260505214604 29 209 6.4 20.9 0.00 0.00 0.00 68 1007.0
20260505213103 28 227 8.0 22.5 0.00 0.00 0.00 67 1007.1
20260505211605 28 204 4.8 20.9 0.00 0.00 0.00 68 1007.2
20260505210752 28 128 11.3 22.5 0.00 0.00 0.00 68 1007.4
20260505204605 29 171 8.0 17.7 0.00 0.00 0.00 69 1007.7
20260505203103 29 213 9.7 20.9 0.00 0.00 0.00 67 1007.9
20260505201603 29 138 3.2 32.2 0.00 0.00 0.00 66 1008.0
20260505200103 29 210 16.1 25.7 0.00 0.00 0.00 67 1008.2
20260505194603 29 180 9.7 20.9 0.00 0.00 0.00 68 1008.3
20260505193103 27 188 4.8 22.5 0.00 0.00 0.00 72 1008.6
20260505191603 28 217 8.0 22.5 0.00 0.00 0.00 69 1008.6
20260505190104 28 168 4.8 20.9 0.00 0.00 0.00 71 1008.7
20260505185308 27 178 8.0 20.9 0.00 0.00 0.00 71 1008.9
20260505183103 27 161 4.8 22.5 0.00 0.00 0.00 73 1009.0
20260505181604 27 185 11.3 20.9 0.00 0.00 0.00 72 1009.1
20260505180103 27 178 11.3 25.7 0.00 0.00 0.00 72 1009.1
20260505174604 27 197 9.7 32.2 0.00 0.00 0.00 72 1009.2
20260505173103 26 216 9.7 22.5 0.00 0.00 0.00 75 1009.5
20260505171603 26 203 6.4 22.5 0.00 0.00 0.00 76 1009.6
20260505170104 26 193 8.0 17.7 0.00 0.00 0.00 77 1009.6
20260505164603 26 224 8.0 17.7 0.00 0.00 0.00 76 1009.5
20260505163103 26 196 8.0 14.5 0.00 0.00 0.00 76 1009.8
20260505161603 26 216 4.8 20.9 0.00 0.00 0.00 76 1009.7
20260505160104 25 188 9.7 17.7 0.00 0.00 0.00 77 1009.6
20260505151603 25 165 8.0 17.7 0.00 0.00 0.00 78 1009.4
20260505150104 25 179 12.9 22.5 0.00 0.00 0.00 78 1009.4
20260505130104 23 127 8.0 20.9 0.00 0.00 0.00 82 1009.2
20260505124602 23 175 6.4 20.9 0.00 0.00 0.00 83 1008.4
20260505124458 22 161 8.0 17.7 0.00 0.00 0.00 83 1008.8
20260505121601 22 195 3.2 14.5 0.00 0.00 0.00 84 1008.8
20260505114601 22 178 8.0 14.5 0.00 0.00 0.00 83 1008.4
20260505114450 22 178 3.2 11.3 0.00 0.00 0.00 83 1008.5
20260505111600 22 159 6.4 14.5 0.00 0.00 0.00 84 1008.5
20260505101559 22 199 4.8 14.5 0.00 0.00 0.00 83 1008.5
20260505100059 21 192 6.4 17.7 0.00 0.00 0.00 83 1008.7
20260505094559 21 182 3.2 14.5 0.00 0.00 0.00 83 1008.6
20260505093100 21 180 4.8 14.5 0.00 0.00 0.00 83 1008.7
20260505091558 21 192 4.8 11.3 0.00 0.00 0.00 83 1009.0
20260505090754 21 209 3.2 11.3 0.00 0.00 0.00 83 1008.9
20260505084557 21 171 6.4 14.5 0.00 0.00 0.00 82 1008.9
20260505083058 21 169 4.8 14.5 0.00 0.00 0.00 81 1009.0
20260505081557 21 168 6.4 14.5 0.00 0.00 0.00 81 1009.2
20260505080056 22 182 3.2 17.7 0.00 0.00 0.00 80 1009.3
20260505075248 21 157 6.4 14.5 0.00 0.00 0.00 80 1009.4
20260505073057 21 192 4.8 14.5 0.00 0.00 0.00 80 1009.4
20260505071555 21 243 4.8 14.5 0.00 0.00 0.00 79 1009.7
20260505070057 21 212 6.4 14.5 0.00 0.00 0.00 79 1009.7
20260505064554 21 180 4.8 11.3 0.00 0.00 0.00 78 1009.9
20260505063057 21 217 6.4 14.5 0.00 0.00 0.00 78 1010.1
20260505061555 21 176 4.8 11.3 0.00 0.00 0.00 78 1010.2
20260505060053 21 178 3.2 8.0 0.00 0.00 0.00 77 1010.2
20260505054553 21 169 3.2 11.3 0.00 0.00 0.00 77 1010.2
20260505053054 22 188 4.8 11.3 0.00 0.00 0.00 76 1010.4
20260505051552 22 169 6.4 17.7 0.00 0.00 0.00 75 1010.6
20260505040050 23 118 8.0 35.4 0.00 0.00 0.00 71 1010.8
20260505035406 23 165 11.3 32.2 0.00 0.00 0.00 71 1010.8
20260505035149 23 186 9.7 20.9 0.00 0.00 0.00 71 1011.0
20260505032248 23 141 9.7 22.5 0.00 0.00 0.00 71 1011.0
20260505030050 23 182 6.4 25.7 0.00 0.00 0.00 70 1010.9
20260505024549 23 172 8.0 20.9 0.00 0.00 0.00 70 1010.7
20260505023049 23 173 6.4 20.9 0.00 0.00 0.00 69 1010.7
20260505022244 23 161 9.7 25.7 0.00 0.00 0.00 69 1010.7
20260505020750 23 148 8.0 17.7 0.00 0.00 0.00 69 1010.5
20260505014548 23 147 6.4 17.7 0.00 0.00 0.00 69 1010.4
20260505013047 23 175 8.0 14.5 0.00 0.00 0.00 69 1010.2